Location: Unspecified
(38.0000°N, 97.0000°W)
Time: 02:02:12
(UTC+00:00)

Daily predictions for brighter satellites

Satellite Brightness Start Highest point End
(mag) Time Altitude Azimuth Time Altitude Azimuth Time Altitude Azimuth
ERS-1 Rocket 3.2 02:19:38 10° SSE 02:24:29 55° ENE 02:29:22 10° N
Cosmos 2278 Rocket 2.4 02:22:48 10° S 02:28:13 50° ESE 02:33:39 10° NNE
Cosmos 2082 Rocket 4.0 02:25:07 10° NNE 02:28:36 16° NE 02:32:04 10° E
CZ-4 R/B 1.2 02:27:34 10° SSE 02:31:23 83° E 02:35:16 10° N
CSL-04 Rocket 4.0 02:26:30 10° S 02:31:44 69° WSW 02:37:00 10° NNW
Sich 1 4.1 02:29:32 10° NNW 02:33:38 45° W 02:37:41 10° SSW
ARIANE 6 FM1 Upper Stage 3.7 02:32:09 10° S 02:35:40 25° ESE 02:39:08 10° ENE
SL-4 R/B 2.4 02:34:47 10° WSW 02:38:13 53° NW 02:41:30 10° NE
Cosmos 1420 Rocket 4.2 02:35:17 10° N 02:40:22 54° ENE 02:45:23 10° SSE
NOSS 3-1 (C) 4.4 02:40:08 10° SE 02:42:03 13° ESE 02:44:09 10° E
Cosmos 1151 Rocket 4.1 02:38:47 10° SSW 02:42:56 47° W 02:47:06 10° N
Spot 2 Rocket 4.3 02:38:20 10° SE 02:42:57 37° ENE 02:47:36 10° N
NOSS 2-1 (C) 4.2 02:46:12 10° SW 02:50:24 50° WNW 02:53:40 10° NNE
Cosmos 1500 Rocket 4.0 02:47:28 10° NNW 02:51:42 62° W 02:55:54 10° S
Meteor 1-13 Rocket 4.3 02:50:35 10° S 02:56:29 76° E 03:02:24 10° NNE
Cosmos 1553 Rocket 4.4 02:50:20 10° SSW 02:56:36 67° W 03:02:48 10° N
S3M 4.1 02:52:45 10° SSE 02:58:40 55° E 03:04:42 10° NNE
Timation 1 Rocket 4.4 02:52:50 10° NNW 02:58:50 85° WSW 03:04:27 12° SSE
ATLAS 5 CENTAUR R/B 1.2 02:56:47 10° S 02:59:24 30° ESE 03:01:59 10° NE
Cosmos 494 Rocket 3.9 02:56:20 10° SSW 03:01:32 81° ESE 03:06:48 10° NNE
Cosmos 2369 Rocket 4.1 03:01:36 10° E 03:01:57 10° E 03:02:18 10° E
IRAS Rocket 4.3 02:57:37 10° SSE 03:03:12 88° WSW 03:08:51 10° NNW
Okean-O 3.1 03:00:20 16° SE 03:03:35 45° ENE 03:07:46 10° N
Cosmos 1328 Rocket 3.5 03:00:39 10° S 03:04:55 68° E 03:09:12 10° NNE
Cosmos 1709 Rocket 4.4 03:02:54 10° N 03:09:05 49° E 03:13:51 17° SSE
Cosmos 1174 3.7 03:04:52 10° SSW 03:09:10 85° WNW 03:12:44 10° NNE
Cosmos 2112 Rocket 4.1 03:09:26 10° SSW 03:14:35 79° WNW 03:19:48 10° NNE
Meteor 1-21 4.2 03:11:54 10° S 03:17:29 71° E 03:23:09 10° NNE
Iridium 45 4.0 03:15:37 19° S 03:17:40 76° E 03:20:51 10° N
Cosmos 1441 Rocket 4.4 03:20:08 19° E 03:20:08 19° E 03:22:21 10° NE
Okean O Rocket 1.5 03:21:05 20° SSE 03:24:02 78° ENE 03:28:27 10° N
Cosmos 1400 Rocket 4.1 03:22:11 10° NNE 03:24:58 21° ENE 03:25:41 19° E
ADEOS 4.0 03:23:41 12° S 03:28:30 60° W 03:33:38 10° NNW
Cosmos 1371 Rocket 3.9 03:24:08 10° NNW 03:29:20 75° ENE 03:32:26 24° SSE
Cosmos 1833 Rocket 4.5 03:30:50 10° NW 03:35:23 26° WSW 03:39:56 10° SSW
Iridium 4 Rocket 3.7 03:31:37 10° S 03:36:32 64° W 03:41:03 10° N
Cosmos 1745 Rocket 4.2 03:30:49 10° N 03:37:09 75° W 03:42:32 15° S
USA 186 1.9 03:38:51 35° N 03:38:51 35° N 03:40:08 10° N
GP-B 3.1 03:34:50 10° N 03:39:12 80° W 03:42:12 20° S
Cosmos 1818 4.4 03:38:54 26° SE 03:39:38 27° ESE 03:44:09 10° NE
Cosmos 1666 Rocket 3.8 03:35:29 10° NNW 03:39:44 64° W 03:42:29 21° S
Timation 2 Rocket 4.3 03:34:45 10° SSW 03:41:01 71° WNW 03:47:37 10° NNE
Cosmos 1953 3.6 03:38:49 10° NNW 03:42:00 31° W 03:44:39 13° SSW
CZ-4B R/B 4.5 03:42:13 10° SSW 03:47:02 34° W 03:51:51 10° NNW
Terra 4.0 03:50:14 10° SW 03:53:37 20° W 03:57:02 10° NW
Cosmos 1515 Rocket 3.5 03:52:28 28° S 03:54:45 85° W 03:59:04 10° N
Cosmos 1048 Rocket 4.2 03:50:35 10° SSW 03:55:46 71° WNW 04:01:05 10° NNE
Cosmos 1633 Rocket 4.1 03:59:03 10° NNW 04:03:11 41° W 04:05:37 21° SSW
IRS-1C Rocket 4.1 04:01:24 37° SSE 04:03:28 72° ENE 04:08:43 10° N
COSMOS 2455 3.6 04:05:55 30° ESE 04:06:11 31° ESE 04:11:21 10° NE
CZ-4B R/B 2.7 04:05:39 54° SSE 04:06:30 87° ENE 04:10:32 10° NNW
SPOT 3 Rocket 3.6 04:07:02 34° S 04:09:18 73° WSW 04:14:29 10° NNW
Cosmos 2082 Rocket 2.2 04:07:38 10° NNW 04:13:14 72° WSW 04:15:24 38° S
CZ-4B R/B 3.5 04:13:07 43° SSE 04:14:53 83° ENE 04:20:09 10° NNW
Cosmos 1656 Rocket 4.0 04:10:17 10° SSW 04:15:43 65° WNW 04:21:16 10° NNE
Cosmos 2074 Rocket 4.2 04:12:26 10° N 04:18:30 54° E 04:20:26 39° SE
Ariane Rocket 3.0 04:18:15 42° S 04:19:58 77° WSW 04:25:03 10° NNW
USA 245 4.3 04:21:03 26° WNW 04:21:03 26° WNW 04:22:31 10° NNW
Cosmos 1328 4.4 04:27:41 39° NE 04:27:41 39° NE 04:30:12 10° NNE
Nadezhda 1 Rocket 4.2 04:29:31 43° SE 04:30:59 52° E 04:37:03 10° NNE
Cosmos 614 Rocket 4.4 04:28:09 22° SW 04:31:18 58° WNW 04:36:17 10° N
NOSS 3-1 (C) 3.4 04:27:25 10° SW 04:31:48 54° NW 04:36:55 10° NNE
NOSS 3-1 (A) 3.3 04:32:37 43° E 04:32:37 43° E 04:36:42 10° NE
Okean 3 4.2 04:30:49 34° WSW 04:31:58 44° W 04:35:51 10° N
ATLAS 5 CENTAUR R/B 4.1 04:40:34 10° WNW 04:41:23 11° NW 04:42:13 10° NNW
USA 81 4.0 04:37:07 10° N 04:42:24 80° W 04:43:32 55° SSW
Cosmos 2369 Rocket 2.1 04:43:14 45° SSW 04:45:02 88° WNW 04:50:41 10° NNE
Helios 1A 3.7 04:48:26 10° NNE 04:51:18 41° NE 04:51:18 41° NE
USA 290 4.4 04:51:43 10° N 04:53:14 22° NNE 04:53:14 22° NNE
Okean 1-7 3.4 04:57:42 55° NE 04:57:42 55° NE 05:01:12 10° NNE
Cosmos 2297 3.8 04:59:50 46° SW 05:01:37 76° WNW 05:07:21 10° NNE
CZ-3B R/B 3.2 05:03:47 54° SE 05:04:18 56° ESE 05:18:06 10° NE
Cosmos 2184 Rocket 4.4 05:06:32 10° NNW 05:12:43 57° W 05:14:26 44° SW
COSMOS 2406 3.6 05:08:51 10° NNW 05:14:18 49° WSW 05:14:55 47° SW
Cosmos 1452 Rocket 4.2 05:10:26 10° NNW 05:15:23 42° WSW 05:15:48 41° WSW
Cosmos 2154 Rocket 4.3 05:09:33 10° NNW 05:15:39 59° W 05:17:09 47° SW
Meteor 2-5 Rocket 3.7 05:18:07 67° ESE 05:18:29 69° E 05:24:22 10° NNE
CZ-2C R/B 4.0 05:24:29 10° NNE 05:28:31 63° NE 05:28:31 63° NE
Cosmos 1315 Rocket 4.1 05:27:52 10° N 05:30:17 37° N 05:30:17 37° N
Lacrosse 4 Rocket 2.3 05:30:02 10° NNW 05:33:03 46° NNW 05:33:03 46° NNW
Cosmos 1733 Rocket 3.8 05:32:14 10° NNW 05:35:41 46° WNW 05:35:41 46° WNW
Cosmos 1703 Rocket 4.5 05:46:18 44° NNE 05:46:18 44° NNE 05:49:28 10° NNE
CZ-2C R/B 4.1 05:45:05 25° ENE 05:45:44 26° ENE 05:50:01 10° NNE
Cosmos 2341 Rocket 3.8 05:40:36 10° N 05:46:50 78° E 05:47:19 73° SE
COSMOS 2455 3.9 05:48:57 25° WSW 05:51:54 40° NW 05:57:33 10° NNE
ARIANE 5 R/B 3.3 05:59:46 52° NNW 05:59:46 52° NNW 06:03:08 10° NNW
Spot 4 4.1 06:01:32 64° NNW 06:01:32 64° NNW 06:05:39 10° NNW
Cosmos 864 Rocket 4.3 05:55:19 10° N 06:01:40 84° W 06:02:09 77° SSW
Gbstr 26 Del rocket 3.7 06:06:02 85° SE 06:06:03 85° SE 06:13:00 10° NE
Helios 1B rocket 4.4 06:09:59 20° NW 06:09:59 20° NW 06:11:16 10° NNW
SJ 16-02 3.0 06:10:07 26° NE 06:10:07 26° NE 06:12:16 10° NNE
Cosmos 1269 Rocket 4.1 06:10:03 73° NNW 06:10:03 73° NNW 06:15:00 10° NNE
Cosmos 2366 rocket 3.9 06:04:24 10° NNW 06:10:40 71° W 06:11:04 69° WSW
Cosmos 407 Rocket 4.1 06:11:46 47° ENE 06:11:46 47° ENE 06:15:45 10° NNE
Cosmos 1140 Rocket 3.8 06:12:02 59° NW 06:12:02 59° NW 06:16:49 10° N
Nadezhda 3 Rocket 4.3 06:11:59 53° E 06:12:12 53° E 06:18:18 10° NNE
ALOS 2 3.6 06:18:46 42° NW 06:18:46 42° NW 06:21:53 10° NNW
Cosmos 1821 Rocket 3.8 06:14:53 10° N 06:21:00 89° W 06:21:13 84° S
Cosmos 921 Rocket 4.2 06:26:45 39° N 06:26:45 39° N 06:29:31 10° N
Cosmos 2181 Rocket 4.1 06:26:05 60° WSW 06:26:44 63° W 06:33:07 10° N
Cosmos 1763 Rocket 4.0 06:23:44 10° N 06:28:23 50° ENE 06:28:23 50° ENE
ACS3 Solar Sail 1.8 06:23:49 10° NNE 06:29:20 60° E 06:29:20 60° E
Cosmos 2297 Rocket 3.8 06:28:44 10° N 06:33:34 28° ENE 06:35:34 23° E
Meteor 2-8 Rocket 4.3 06:31:55 10° N 06:38:04 83° W 06:38:15 82° SW
Cosmos 1980 Rocket 4.5 06:38:19 12° E 06:38:19 12° E 06:40:05 10° ENE
In-Cosmos 22 Rocket 4.4 06:43:49 62° WNW 06:43:49 62° WNW 06:49:24 10° N
CZ-2C R/B 3.6 06:42:02 10° N 06:46:41 46° WNW 06:46:41 46° WNW
ATLAS 3B R/B 3.2 06:49:51 49° SE 06:50:34 51° ESE 06:58:05 10° NE
Cosmos 1656 3.8 06:50:47 63° WNW 06:50:47 63° WNW 06:56:18 10° NNE
NOSS 2-2 (D) 4.4 06:53:39 10° NNW 06:57:18 48° NE 06:57:18 48° NE
CENTAUR R/B 3.9 06:49:18 10° NNW 06:57:38 53° NE 07:06:15 12° SE
Cosmos 540 Rocket 3.6 06:59:13 10° NNW 07:03:34 65° NW 07:03:34 65° NW
SL-08 R/B 4.3 07:00:11 10° N 07:06:35 89° WSW 07:07:06 77° S
Cosmos 1378 Rocket 4.4 07:09:59 47° NNE 07:09:59 47° NNE 07:13:07 10° N
Lacrosse 5 rocket 3.4 07:10:15 10° NNW 07:11:26 19° NNW 07:11:26 19° NNW
Meteor 1-11 4.1 07:15:35 82° W 07:15:39 82° W 07:21:26 10° N
Cosmos 468 Rocket 4.0 07:15:17 10° NNW 07:20:16 73° ENE 07:20:16 73° ENE
Cosmos 332 Rocket 4.0 07:24:04 67° NNE 07:24:04 67° NNE 07:28:10 10° NNE
Cosmos 968 Rocket 4.2 07:25:27 41° E 07:25:27 41° E 07:30:16 10° NNE
Cosmos 676 Rocket 4.1 07:25:39 67° E 07:25:39 67° E 07:30:33 10° NNE
CZ-2C R/B 3.6 07:26:32 34° WNW 07:26:32 34° WNW 07:30:36 10° NNW
Cosmos 1809 Rocket 4.3 07:29:11 71° S 07:29:54 86° E 07:36:06 10° N
Cosmos 1934 Rocket 3.9 07:24:22 10° N 07:30:43 72° W 07:31:24 66° SW
Cosmos 1697 Rocket 2.5 07:31:01 85° S 07:31:12 89° ESE 07:36:50 10° NNE
SL-4 R/B 4.5 07:30:56 10° NNW 07:32:55 15° NNE 07:34:52 10° ENE
Cosmos 2251 Rocket 3.8 07:33:28 58° WNW 07:33:36 58° WNW 07:38:53 10° N
Meteor 2-1 Rocket 4.4 07:31:16 10° N 07:37:08 70° E 07:38:15 56° SE
Cosmos 1674 Rocket 4.0 07:43:22 57° NNW 07:43:22 57° NNW 07:47:04 10° N
Cosmos 1025 Rocket 3.4 07:45:33 58° NNW 07:45:33 58° NNW 07:49:11 10° N
SJ 16-02 3.5 07:46:35 16° WNW 07:46:35 16° WNW 07:49:07 10° NNW
USA 229 DEB 4.0 07:45:28 40° W 07:47:02 50° NW 07:53:23 10° NNE
USA 229 3.9 07:45:31 41° W 07:47:04 51° NW 07:53:25 10° NNE
Cosmos 841 Rocket 3.8 07:42:24 10° N 07:47:32 61° ENE 07:48:28 51° ESE
Cosmos 2292 Rocket 4.4 07:48:32 38° ENE 07:48:32 38° ENE 07:51:50 10° NNE
ISS -1.4 07:50:31 22° ENE 07:50:31 22° ENE 07:51:51 10° ENE
Cosmos 2227 Rocket 3.1 07:43:23 10° N 07:48:47 45° ENE 07:51:56 23° ESE
USA 215 3.1 07:47:33 39° SE 07:50:15 79° SW 07:56:49 10° NW
GEOS 3 Rocket 3.5 07:52:29 63° SSE 07:53:23 88° SW 07:58:48 10° NW
MOS 1-B Rocket 4.3 07:48:37 10° NNE 07:54:04 49° E 07:55:19 42° SE
Cosmos 292 Rocket 3.7 07:54:37 79° NW 07:54:37 79° NW 07:59:12 10° NNE
ADEOS Rocket 2.9 07:50:29 10° NNE 07:56:09 62° E 07:57:10 52° SE
Cosmos 1850 Rocket 4.4 07:58:45 47° SE 07:59:20 50° ESE 08:04:19 10° NNE
NPP 4.2 07:54:53 10° NNE 08:00:05 47° E 08:01:15 41° SE
Nimbus 7 Rocket 4.3 07:55:34 10° NNE 08:01:26 77° ESE 08:02:40 57° S
USA 308 3.6 07:57:49 10° NW 08:01:46 48° NE 08:02:42 40° E
Cosmos 1727 Rocket 4.1 08:01:51 46° SSE 08:03:38 67° E 08:09:45 10° NNE
IDEFIX/ARIANE 42P 2.5 08:00:44 10° NNE 08:05:57 73° ESE 08:06:44 61° SSE
ACS3 Solar Sail 3.4 08:07:22 10° NNW 08:11:08 18° WNW 08:12:39 17° W
Okean 2 Rocket 3.2 08:07:18 10° NNW 08:11:13 62° WNW 08:11:13 62° WNW
Okean 1 Rocket 3.2 08:12:07 10° NNW 08:15:58 60° WNW 08:15:58 60° WNW
Cosmos 2297 Rocket 2.8 08:12:26 10° NW 08:17:18 39° W 08:17:18 39° W
Meteor 2-16 Rocket 4.3 08:17:24 50° S 08:19:08 90° NNW 08:25:14 10° N
Cosmos 1980 Rocket 2.1 08:20:04 56° SW 08:21:19 82° WNW 08:27:02 10° NNE
Cosmos 2058 3.4 08:21:31 45° ESE 08:21:45 46° E 08:25:31 10° NNE
MSX 3.8 08:18:19 10° N 08:24:05 77° WNW 08:25:36 50° SSW
Cosmos 1975 Rocket 3.4 08:23:36 50° SE 08:24:11 55° E 08:28:23 10° NNE
Cosmos 2263 Rocket 2.7 08:20:15 10° NNW 08:25:47 59° ENE 08:30:24 15° SE
Cosmos 2100 Rocket 4.3 08:20:25 10° N 08:26:35 62° E 08:30:14 25° SSE
ALOS 4.2 08:25:38 10° NE 08:29:04 21° E 08:31:27 14° SE
ADEOS II 4.2 08:29:15 10° NE 08:32:51 19° E 08:36:26 10° SE
Cosmos 1000 Rocket 4.4 08:35:10 41° SSW 08:37:28 83° W 08:43:44 10° N
ATLAS 3B R/B 3.9 08:37:03 21° W 08:41:32 39° NW 08:48:49 10° NNE
CZ-2D R/B 3.3 08:42:14 10° NNE 08:47:09 36° E 08:50:36 17° SSE
CENTAUR R/B 3.7 08:40:10 10° NW 08:48:24 44° WSW 08:53:11 27° SSW
Tiangong 0.3 08:50:03 14° ESE 08:50:03 14° ESE 08:51:02 10° ESE
Cosmos 1437 Rocket 3.0 08:50:59 10° NNW 08:53:45 44° WNW 08:53:45 44° WNW
Cosmos 1455 Rocket 3.4 08:53:30 10° NNW 08:57:38 44° W 08:58:06 42° WSW
NOAA 11 4.2 08:52:17 10° N 08:57:46 75° WNW 09:00:06 35° SSW
Cosmos 1782 3.7 08:55:20 10° NNW 08:57:43 28° WNW 08:57:43 28° WNW
SL-16 R/B 3.1 08:59:08 20° SSE 09:02:36 43° ESE 09:07:54 10° NE
Cosmos 1814 Rocket 4.4 08:58:53 10° NNW 09:04:07 63° ENE 09:09:16 10° SSE
Cosmos 1802 Rocket 4.1 09:00:47 10° N 09:07:14 87° E 09:12:43 15° S
Cosmos 1862 4.3 09:07:32 26° WNW 09:07:32 26° WNW 09:10:31 10° NNW
SL-4 R/B 1.0 09:07:22 10° NW 09:10:29 77° SW 09:13:33 10° SE
MOZ.5/SAFIR/RUBIN 5/SL-8 3.6 09:10:26 21° SSE 09:13:29 86° WSW 09:18:10 10° NNW
DMSP B5D2-2 4.0 09:09:20 16° SSE 09:13:37 90° W 09:18:54 10° NNW
DELTA 2 R/B (1) 3.5 09:11:03 23° W 09:14:35 87° NNW 09:20:09 10° ENE
Cosmos 1864 Rocket 4.4 09:10:32 10° N 09:16:40 77° W 09:21:35 17° S
Cosmos 44 4.0 09:15:52 24° S 09:18:50 54° ESE 09:24:03 10° NE
Cosmos 1544 Rocket 3.7 09:15:22 10° N 09:19:47 75° E 09:23:30 14° SSE
Resurs 1-4 Rocket 2.1 09:14:51 10° NNE 09:20:09 83° ESE 09:23:39 22° S
Cosmos 2369 4.0 09:17:39 28° SW 09:20:31 53° WNW 09:26:08 10° NNE
Cosmos 1743 4.3 09:19:03 11° SE 09:21:15 21° E 09:23:35 10° NE
SL-19 R/B 4.0 09:24:19 42° WSW 09:24:30 43° WSW 09:27:25 10° NNW
ISS -1.5 09:23:26 12° WNW 09:25:32 19° NNW 09:28:06 10° NNE
USA 59 Rocket 3.6 09:25:33 10° NE 09:26:20 10° NE 09:27:09 10° ENE
Cosmos 1459 Rocket 4.4 09:21:59 10° NNW 09:27:56 47° W 09:31:55 21° SSW
Cosmos 2333 Rocket 2.5 09:25:52 19° S 09:29:57 67° ESE 09:35:37 10° NNE
Cosmos 2227 Rocket 3.3 09:28:08 10° NW 09:32:27 23° W 09:33:38 21° WSW
Cosmos 2228 4.2 09:31:25 10° NW 09:34:48 24° W 09:35:41 22° WSW
Envisat 3.3 09:30:16 10° N 09:35:10 51° WNW 09:38:12 22° SW
ARGOS 4.1 09:30:41 10° NNE 09:35:50 44° E 09:40:58 10° S
H-2A R/B 1.9 09:33:08 10° N 09:38:13 77° WNW 09:41:54 18° SSW
BREEZE-M DEB (TANK) 4.5 09:26:03 18° SW 09:39:14 63° SE 09:44:04 10° ENE
Cosmos 1536 Rocket 3.5 09:36:26 19° S 09:39:37 85° W 09:44:03 10° N
Aureole 3 Rocket 2.3 09:38:39 10° N 09:42:14 84° E 09:44:56 13° S
Cosmos 2322 Rocket 2.7 09:42:27 11° S 09:47:45 56° ESE 09:53:17 10° NNE
Cosmos 2346 Rocket 4.5 09:42:46 13° SSW 09:48:23 75° W 09:54:39 10° N
H-2A R/B 4.4 09:50:01 10° NE 09:53:12 20° E 09:56:21 10° SE
Cosmos 2016 Rocket 4.5 09:54:01 10° NNW 09:59:51 42° W 10:05:44 10° SSW
AQUA 4.5 09:57:50 10° NNE 10:02:26 53° E 10:06:58 10° S
NOSS 3-4 (A) 3.1 09:58:32 14° SSW 10:03:00 86° ESE 10:08:34 10° NNE
BREEZE-M DEB (TANK) 4.5 10:02:05 10° W 10:03:05 11° W 10:03:05 11° W
NOSS 3-4 (C) 3.1 09:59:15 14° SSW 10:03:47 86° ESE 10:09:23 10° NE
ALOS 3.1 10:01:55 10° N 10:06:00 34° WNW 10:09:28 13° SW
Cosmos 1980 Rocket 4.3 10:03:53 10° WNW 10:06:11 12° NW 10:08:30 10° NNW
BREEZE-M DEB (TANK) 3.8 09:55:55 10° NW 10:07:13 65° SW 10:10:48 10° SE
SL-08 RB Rocket 4.5 10:04:06 10° NNE 10:08:29 50° E 10:12:48 10° S
Cosmos 1726 Rocket 4.2 10:03:56 10° N 10:08:30 60° E 10:12:55 10° SSE
Cosmos 2263 Rocket 3.7 10:05:37 10° WNW 10:09:07 17° W 10:11:56 12° SW
Cosmos 2219 3.8 10:05:32 10° NW 10:10:38 35° WSW 10:15:44 10° SSW
ADEOS II 2.5 10:07:35 10° N 10:12:36 48° WNW 10:17:36 10° SW
Cosmos 2219 Rocket 2.9 10:09:06 10° S 10:14:32 53° ESE 10:20:02 10° NNE
Cosmos 2061 Rocket 4.2 10:08:52 10° NNW 10:14:58 52° W 10:21:00 10° SSW
Cosmos-2242 4.4 10:13:41 10° N 10:17:43 41° E 10:21:43 10° SSE
Cosmos 1892 Rocket 3.5 10:15:22 10° S 10:19:39 88° E 10:23:58 10° N
H-2A R/B 2.6 10:18:52 10° S 10:22:37 45° W 10:26:24 10° NNW
Cosmos 1844 Rocket 2.7 10:17:28 10° NNW 10:23:05 77° WSW 10:28:42 10° SSE
Tiangong -2.2 10:22:15 10° WSW 10:25:23 88° SSE 10:28:33 10° ENE
CZ-2D R/B 3.3 10:22:27 10° N 10:26:55 27° WNW 10:31:18 10° WSW
Cosmos 2360 Rocket 2.3 10:24:16 10° SSW 10:29:54 69° WNW 10:35:34 10° NNE
Okean 1 3.7 10:27:15 10° NNW 10:30:28 34° W 10:33:38 10° SSW
RESURS DK-1 2.3 10:26:33 10° SSW 10:30:29 86° ESE 10:34:27 10° NNE
Cosmos 1606 Rocket 3.8 10:27:45 10° NNW 10:32:02 50° W 10:36:18 10° SSW
Cosmos 2333 4.3 10:29:51 10° SSW 10:35:30 76° WNW 10:41:15 10° NNE
Cosmos 1271 Rocket 2.5 10:35:57 10° NNW 10:39:18 56° W 10:42:39 10° S
BREEZE-M DEB (TANK) 4.0 10:37:29 10° NW 10:41:35 29° NNE 10:43:44 10° E
